Theta_e
338 341 341 340 340 340 339 338 337 337 336 339 340 343 347 348 348 349 348 347 348 348 348 349 350 351 350 351 355 358 359 358 357 356 356 354 354 352 353 353 349 347 347 347
340 340 340 340 338 338 338 338 337 337 337 337 338 338 341 345 347 347 348 347 347 347 349 350 352 351 351 352 353 358 360 361 360 359 359 357 355 354 353 352 351 350 348 347
340 339 340 339 338 338 338 338 337 339 337 336 334 336 340 344 344 344 346 349 347 349 351 348 345 344 346 352 355 357 360 361 362 360 358 358 356 357 355 357 356 356 351 347
339 339 339 337 338 338 338 336 335 335 335 338 337 338 339 345 346 348 346 347 349 349 351 346 340 342 346 347 352 356 360 361 360 362 360 358 359 356 356 356 356 354 354 352
339 339 339 338 338 337 338 336 335 335 336 336 337 335 341 344 350 350 349 348 348 351 353 346 344 342 348 351 353 354 359 360 359 361 359 361 359 359 358 357 356 356 355 352
337 337 339 338 338 336 336 336 335 336 336 336 338 335 344 345 349 351 351 349 348 348 353 350 346 348 351 353 354 354 357 355 358 360 361 359 357 359 357 354 354 353 353 354
336 338 337 337 338 336 336 336 337 339 340 339 341 336 346 341 344 347 352 351 349 349 354 353 352 353 355 355 354 354 357 360 354 359 359 360 360 359 359 358 354 353 351 350
336 340 337 337 338 338 336 337 338 341 339 338 339 338 345 344 346 348 350 351 352 352 353 353 354 355 354 355 355 354 358 360 360 355 350 352 354 358 355 350 350 351 351 353
335 339 337 337 338 338 338 338 335 334 335 334 338 341 345 346 349 351 351 353 354 354 355 355 355 355 351 351 348 350 356 357 356 356 351 349 345 346 346 346 342 351 352 354
335 338 337 336 337 336 336 337 334 333 334 336 337 340 347 344 349 353 354 354 355 356 355 353 351 350 348 347 349 350 352 355 354 352 353 352 352 345 339 342 341 342 345 348
335 336 337 337 337 336 335 335 334 334 337 337 340 345 343 346 348 352 353 354 353 352 352 350 349 349 349 349 349 350 351 351 350 348 348 346 346 347 350 349 350 351 351 351
335 335 338 335 336 336 336 333 333 335 340 341 341 345 343 345 345 347 352 353 352 354 352 352 352 351 352 352 352 351 350 349 348 347 347 346 346 346 346 347 346 347 346 347
336 336 337 337 337 335 333 335 335 337 339 342 344 348 347 345 346 348 352 350 350 354 354 353 352 351 349 348 348 347 345 344 343 344 346 348 350 350 349 347 347 347 348 347
335 335 338 339 339 335 335 336 334 335 335 337 347 348 350 349 349 348 352 352 352 353 349 348 346 344 343 342 341 341 340 339 339 339 339 340 342 340 342 344 349 351 350 349
335 336 337 337 338 338 337 337 334 334 336 339 337 340 349 350 349 350 350 352 350 348 345 344 342 340 338 337 336 336 337 336 336 337 337 337 339 339 339 340 342 343 345 344
335 336 335 336 334 336 336 334 335 335 337 337 336 342 349 349 350 350 349 346 345 343 341 339 337 336 336 335 334 335 335 335 335 336 336 336 337 336 336 336 336 337 339 340
335 336 336 335 334 333 334 335 337 338 337 337 338 349 348 349 347 347 346 344 342 340 339 337 335 334 333 332 332 333 333 333 334 334 334 332 330 329 329 329 331 333 334 334
335 336 336 335 337 335 340 339 337 335 335 334 336 342 345 346 345 344 343 341 339 337 336 334 333 333 332 331 331 332 332 331 330 330 329 328 326 325 325 325 327 327 327 331
335 335 335 343 345 340 339 337 336 336 338 336 338 342 343 342 341 340 338 338 335 334 334 333 332 332 332 331 330 330 329 328 327 324 323 322 322 323 323 323 323 323 323 324
334 335 335 336 336 340 340 337 335 335 336 337 337 339 340 339 343 343 337 335 334 333 332 331 330 330 330 329 328 327 324 322 322 322 321 321 321 323 322 322 321 321 320 319
336 336 338 338 337 342 339 337 334 335 344 336 335 337 339 340 341 338 335 334 333 332 331 330 330 329 328 325 322 319 320 322 320 319 320 323 322 322 321 322 321 321 320 319
338 339 336 340 343 345 338 337 336 343 338 336 336 337 338 338 336 335 334 333 332 331 329 329 328 326 322 320 319 320 322 319 319 319 320 321 321 322 322 322 323 323 321 319
341 342 345 345 346 340 338 339 340 338 337 337 337 336 337 336 335 334 333 332 330 328 328 325 320 317 317 318 319 321 322 319 318 319 320 320 320 321 319 321 322 323 323 321
343 341 342 343 341 339 338 338 337 337 337 336 336 336 335 335 334 332 331 330 328 324 319 316 315 315 315 316 318 321 321 320 320 319 318 318 317 318 318 318 319 319 321 319
340 340 342 346 341 338 337 337 336 336 336 335 335 334 334 333 332 330 329 327 321 318 316 315 314 314 314 316 318 320 321 317 318 318 319 319 316 317 316 318 317 317 317 318
338 336 338 337 341 338 337 336 336 335 335 334 333 332 331 330 329 329 324 321 319 317 316 316 314 314 314 315 317 317 318 317 317 319 317 317 317 318 316 315 315 315 316 318
Wind_Speed
20 15 16 16 5 8 7 6 3 5 6 5 5 11 14 17 14 18 20 18 18 19 16 16 15 13 12 11 12 13 14 13 14 14 15 15 14 14 14 12 13 14 18 17
19 18 14 3 2 6 7 8 5 5 5 10 10 8 10 13 12 14 20 21 19 20 18 16 16 17 13 12 12 12 13 14 16 14 14 14 14 15 16 13 13 12 11 11
23 17 7 8 11 11 14 10 8 11 9 11 5 14 12 8 6 10 16 23 22 22 21 17 13 14 9 12 12 12 13 14 15 15 16 16 15 15 11 12 13 13 13 11
23 18 9 10 15 9 6 0 2 5 12 8 9 3 14 14 11 9 16 20 24 22 22 20 10 11 9 6 8 10 11 12 12 15 15 16 15 13 10 11 13 14 17 16
19 20 14 14 13 3 3 7 5 4 13 11 10 8 9 15 16 10 12 17 18 22 22 23 12 11 7 3 5 8 9 9 10 10 13 13 15 13 12 12 15 15 17 17
21 27 12 17 9 6 6 8 7 13 14 11 5 9 11 13 15 12 7 8 13 22 23 21 20 11 7 6 5 5 5 6 6 7 10 12 14 14 13 13 13 15 15 17
19 21 11 13 9 11 12 18 10 9 8 3 9 8 7 13 9 11 11 9 6 6 19 16 16 13 6 3 4 5 4 2 3 5 7 8 10 11 11 10 10 15 17 15
18 19 21 15 19 12 18 19 9 10 9 6 8 2 4 8 14 12 12 12 12 11 12 11 11 10 9 8 7 6 5 4 2 1 2 3 4 4 7 9 11 7 9 10
19 20 22 20 20 15 8 14 14 12 8 6 9 8 22 15 13 14 14 15 14 15 15 12 9 9 12 13 9 7 6 5 3 1 1 2 5 5 6 10 10 8 10 9
15 16 21 22 7 13 13 14 9 9 12 7 4 8 10 14 15 13 15 15 14 14 11 11 11 13 13 12 9 8 5 4 1 1 3 4 3 4 4 6 6 7 10 13
13 16 12 16 15 19 14 13 11 11 11 2 11 6 11 6 15 13 14 15 14 13 14 14 13 12 12 10 7 5 4 3 2 3 3 2 2 4 6 6 9 9 10 11
19 16 14 17 24 25 18 16 19 8 4 10 10 4 2 4 2 14 16 14 12 12 14 13 11 10 9 7 6 4 3 1 4 5 6 7 7 7 8 9 9 9 10 9
16 11 11 11 10 10 14 7 10 10 11 14 15 7 8 7 11 7 15 15 9 9 12 14 12 9 8 7 7 5 4 5 7 7 8 9 8 9 10 12 13 14 14 12
19 19 12 6 11 18 20 9 8 14 3 4 11 10 11 10 9 8 11 12 11 8 16 11 8 7 7 7 7 5 6 8 9 11 11 11 11 12 13 15 14 17 17 17
18 17 14 11 10 18 11 18 2 8 13 11 14 9 10 9 9 9 10 12 9 9 9 8 8 7 5 8 8 8 9 12 13 13 12 12 14 15 16 16 16 17 20 22
20 11 8 8 12 13 20 2 1 2 6 6 10 7 11 12 11 9 10 11 9 10 7 6 6 3 2 6 9 10 11 12 12 12 12 13 14 14 14 16 18 19 20 21
19 8 7 11 10 6 9 10 5 6 2 6 7 10 10 10 12 11 10 9 10 7 5 3 3 4 6 8 10 11 11 12 12 11 11 13 16 17 17 16 16 17 19 22
15 12 9 5 6 11 10 8 7 2 4 2 2 7 7 11 12 11 10 9 7 5 3 3 5 7 8 9 11 11 12 12 12 13 13 15 16 16 17 18 19 21 20 21
19 14 10 5 14 9 11 10 7 2 5 3 7 9 11 13 14 10 8 7 4 3 4 5 7 8 8 9 10 11 11 12 13 15 17 18 19 19 20 21 22 22 22 22
16 13 9 11 12 5 11 13 9 5 5 9 9 10 13 13 10 11 9 5 3 3 5 7 8 7 9 10 11 11 12 14 16 18 20 19 18 20 22 24 26 26 25 23
12 14 15 4 12 11 9 13 11 3 6 6 6 10 11 7 11 14 8 4 3 4 6 7 7 8 9 10 12 13 14 16 20 22 20 21 21 19 19 22 23 24 25 26
9 11 8 5 8 9 12 10 0 7 8 7 6 9 10 12 10 9 5 3 3 5 6 6 7 8 9 12 13 14 16 21 23 19 18 20 20 22 23 24 26 27 26 25
6 4 3 7 7 12 11 11 10 8 9 8 11 9 11 11 8 5 3 3 3 5 5 6 7 8 10 12 13 14 16 21 22 21 22 22 21 20 20 23 25 27 27 26
3 4 6 9 7 7 10 10 9 9 10 11 12 12 11 9 6 4 2 1 3 5 5 6 8 9 11 12 12 12 15 19 21 22 23 21 21 23 22 22 22 25 25 24
6 5 5 8 7 8 8 8 11 12 13 14 12 11 9 8 5 4 4 5 5 5 6 7 8 9 11 12 11 12 16 18 19 19 19 21 21 23 22 22 24 24 22 22
8 5 5 4 17 5 16 13 13 16 15 14 14 12 8 6 7 8 8 7 5 5 6 7 8 10 11 12 12 13 15 17 18 18 18 19 19 19 21 24 26 22 26 19
Wind_Direction
208 231 236 240 35 357 11 301 254 102 98 234 216 150 177 173 188 172 176 176 181 181 180 184 187 193 192 199 208 214 212 215 217 227 239 234 240 249 247 251 274 279 272 274
222 229 255 95 272 264 262 252 134 121 185 258 150 231 142 159 194 197 185 176 187 184 178 189 197 194 196 205 212 218 217 215 226 231 241 253 260 265 267 275 274 277 276 272
230 199 187 215 207 232 233 255 106 135 182 242 243 228 155 138 187 197 207 185 186 185 184 194 197 204 201 203 217 224 221 213 220 228 240 243 243 249 261 259 257 258 266 267
222 231 169 196 248 233 314 129 145 235 243 171 248 131 198 158 141 184 192 196 187 188 193 202 176 192 193 219 204 225 226 221 224 225 232 240 243 251 260 263 264 253 252 257
210 233 188 222 233 291 80 234 262 290 282 272 185 259 150 165 143 145 168 189 203 193 194 201 184 184 178 191 231 212 218 221 215 233 242 239 253 253 262 257 257 256 264 264
229 220 184 214 239 216 311 217 216 235 246 260 156 268 33 334 116 127 141 182 219 202 185 203 207 214 235 265 249 213 217 230 227 237 243 249 239 245 248 252 258 274 268 260
227 217 210 228 219 189 227 247 218 220 272 355 233 272 88 196 95 118 138 145 161 193 161 196 204 211 217 194 174 168 186 228 249 231 238 246 254 253 255 267 277 279 278 265
204 216 189 187 243 211 211 251 283 300 279 186 158 339 108 50 112 124 136 138 135 150 148 166 177 176 160 146 139 136 133 131 162 239 278 274 261 261 261 292 283 284 271 272
190 221 184 208 204 242 219 241 287 310 222 248 183 344 156 147 125 134 136 137 141 132 138 131 138 147 141 123 123 121 114 126 142 221 303 330 356 332 280 293 292 283 284 277
193 215 189 211 210 251 265 293 210 222 253 242 101 333 152 173 152 137 143 144 139 127 129 129 123 124 124 122 117 110 106 100 93 303 309 324 315 337 335 318 314 293 277 271
241 215 166 196 197 223 204 244 259 273 269 209 226 93 51 11 143 140 140 144 148 143 132 127 120 119 118 116 111 101 81 48 9 4 337 326 17 349 326 307 308 311 308 300
239 213 169 198 205 221 251 209 231 219 134 355 306 137 210 342 68 141 138 147 144 145 145 137 125 118 113 104 86 67 62 11 355 330 328 319 321 320 315 305 292 298 300 303
227 236 166 169 176 210 248 250 272 90 234 180 210 159 125 119 99 119 130 138 139 142 122 103 106 104 88 94 90 50 2 354 347 346 317 309 308 307 299 297 290 285 288 285
246 240 167 119 320 185 218 158 254 299 297 216 82 194 115 102 108 117 131 138 155 159 88 101 103 90 74 60 61 44 345 346 337 330 327 324 320 312 310 291 282 282 276 276
236 240 129 167 236 83 351 259 167 293 333 332 352 53 85 67 99 127 143 131 136 126 106 107 92 70 34 23 358 3 341 332 327 322 322 317 318 315 311 311 303 296 285 276
218 223 204 154 198 181 200 123 317 339 320 297 313 60 83 101 113 133 132 135 136 127 117 108 110 85 6 346 338 336 331 325 325 330 331 331 327 321 319 308 292 284 284 281
212 181 199 215 208 223 237 187 175 21 302 352 326 82 118 123 122 134 141 143 134 130 118 86 39 1 343 338 335 328 329 327 328 328 327 320 306 313 311 300 295 294 289 282
212 221 188 232 186 220 81 78 73 360 22 328 97 128 139 135 133 141 147 141 132 119 86 24 354 344 337 332 330 330 331 331 338 346 342 337 327 320 317 316 314 308 298 281
197 206 219 146 201 137 149 145 152 188 134 149 127 141 135 144 136 133 129 128 116 71 25 359 343 337 337 340 341 346 348 350 345 340 338 332 331 328 325 320 317 312 305 299
204 204 220 224 262 299 103 115 106 86 270 125 134 157 160 166 216 131 147 131 96 30 359 348 344 344 345 350 351 354 350 348 344 339 333 333 334 336 337 331 330 325 319 308
201 195 219 164 246 117 121 134 128 235 96 135 147 162 169 187 63 126 137 117 63 19 359 3 355 355 354 352 354 356 352 346 340 337 345 342 334 332 331 332 331 329 327 319
179 212 226 177 46 255 144 146 97 104 139 134 146 154 149 122 130 130 124 86 31 12 6 5 0 1 358 354 357 356 352 341 341 339 339 334 337 339 341 334 338 341 339 333
199 64 45 44 18 121 118 88 117 128 135 148 147 148 148 151 145 140 110 55 25 26 30 17 14 5 359 354 358 355 340 348 351 350 346 343 340 341 335 335 341 344 345 343
103 4 83 150 178 131 100 113 118 135 140 139 146 147 154 147 150 144 115 71 57 54 39 21 14 3 357 353 353 350 343 355 355 359 358 352 351 344 344 342 340 339 345 344
68 154 130 97 117 119 130 131 137 135 138 138 140 142 140 143 141 153 135 118 95 65 34 22 15 6 360 355 354 348 339 340 346 353 350 352 354 355 353 354 349 346 340 342
161 169 219 325 148 188 157 155 151 146 144 143 138 130 124 137 140 136 129 116 96 63 36 23 14 5 360 358 355 346 343 345 350 350 346 348 352 354 354 356 360 10 359 345